Weather History for Altus, OK

Change the Weather History Date:

Sunday, February 3, 2013

  Actual Average (KLTS) Record (KLTS)
Temperature  
Mean Temperature 48 °F -  
Max Temperature 68 °F 51 °F 30 °F (2014)
Min Temperature 28 °F 28 °F 26 °F (2014)
Degree Days  
Heating Degree Days 17    
Moisture  
Dew Point 25 °F    
Average Humidity 43    
Maximum Humidity 80    
Minimum Humidity 14    
Precipitation  
Precipitation 0.00 in - - ()
Sea Level Pressure  
Sea Level Pressure 30.17 in    
Wind  
Wind Speed 5 mph (South)    
Max Wind Speed 22 mph    
Max Gust Speed 26 mph    
Visibility 10 miles    
Events      
Averages and records for this station are not official NWS values.
T = Trace of Precipitation, MM = Missing Value Source: NWS Daily Summary

Daily Weather History Graph

Daily Weather History Graph

Search for Another Location

Airport:

Trip Planner

Search our weather history database for the weather conditions in past years. The results will help you decide how hot, cold, wet, or windy it might be!

Date:

Astronomy

Feb. 03, 2013 Rise Set
Actual Time 7:33 AM CST 6:09 PM CST
Civil Twilight 7:07 AM CST 6:35 PM CST
Nautical Twilight 6:37 AM CST 7:05 PM CST
Astronomical Twilight 6:07 AM CST 7:35 PM CST
Moon 1:02 AM CST (2/3) 11:48 AM CST (2/3)
Length of Visible Light 11h 27m
Length of Day
10h 35m
Waning Gibbous, 48% of the Moon is Illuminated
Feb 3
Waning Gibbous
Feb 10
New
Feb 17
First Quarter
Feb 25
Full
Mar 4
Last Quarter

Hourly Weather History & Observations

Time (CST) Temp. Windchill Dew Point Humidity Pressure Visibility Wind Dir Wind Speed Gust Speed Precip Events Conditions
12:15 AM 42.8 °F - 26.6 °F 53% 30.34 in 10.0 mi Calm Calm - N/A   Clear
12:35 AM 42.8 °F - 26.6 °F 53% 30.34 in 10.0 mi Calm Calm - N/A   Clear
12:55 AM 42.8 °F - 26.6 °F 53% 30.34 in 10.0 mi Calm Calm - N/A   Clear
1:15 AM 42.8 °F - 26.6 °F 53% 30.34 in 10.0 mi Calm Calm - N/A   Clear
1:35 AM 44.6 °F - 26.6 °F 49% 30.34 in 10.0 mi Calm Calm - N/A   Clear
1:55 AM 42.8 °F - 26.6 °F 53% 30.34 in 10.0 mi Calm Calm - N/A   Clear
2:15 AM 37.4 °F - 24.8 °F 60% 30.33 in 10.0 mi Calm Calm - N/A   Clear
2:35 AM 37.4 °F - 26.6 °F 65% 30.33 in 10.0 mi Calm Calm - N/A   Clear
2:55 AM 41.0 °F - 26.6 °F 57% 30.32 in 10.0 mi Calm Calm - N/A   Clear
3:15 AM 37.4 °F - 26.6 °F 65% 30.32 in 10.0 mi Calm Calm - N/A   Clear
3:35 AM 37.4 °F 34.9 °F 26.6 °F 65% 30.31 in 10.0 mi South 3.5 mph - N/A   Clear
3:55 AM 37.4 °F - 26.6 °F 65% 30.31 in 10.0 mi Calm Calm - N/A   Clear
4:15 AM 35.6 °F - 26.6 °F 70% 30.30 in 10.0 mi Calm Calm - N/A   Clear
4:35 AM 32.0 °F - 23.0 °F 69% 30.30 in 10.0 mi Calm Calm - N/A   Clear
4:55 AM 32.0 °F - 23.0 °F 69% 30.30 in 10.0 mi Calm Calm - N/A   Clear
5:15 AM 32.0 °F 28.7 °F 23.0 °F 69% 30.30 in 10.0 mi North 3.5 mph - N/A   Clear
5:35 AM 32.0 °F - 24.8 °F 75% 30.30 in 10.0 mi Calm Calm - N/A   Clear
5:55 AM 32.0 °F - 24.8 °F 75% 30.30 in 10.0 mi Calm Calm - N/A   Clear
6:15 AM 30.2 °F - 23.0 °F 75% 30.31 in 10.0 mi Calm Calm - N/A   Clear
6:35 AM 28.4 °F - 23.0 °F 80% 30.31 in 10.0 mi Calm Calm - N/A   Clear
6:55 AM 30.2 °F - 23.0 °F 75% 30.30 in 10.0 mi Calm Calm - N/A   Clear
7:15 AM 30.2 °F - 23.0 °F 75% 30.31 in 10.0 mi Calm Calm - N/A   Clear
7:35 AM 30.2 °F - 23.0 °F 75% 30.31 in 10.0 mi Calm Calm - N/A   Clear
7:55 AM 30.2 °F - 23.0 °F 75% 30.31 in 10.0 mi Calm Calm - N/A   Clear
8:15 AM 32.0 °F - 24.8 °F 75% 30.31 in 10.0 mi Calm Calm - N/A   Clear
8:55 AM 35.6 °F 32.8 °F 28.4 °F 75% 30.31 in 10.0 mi North 3.5 mph - N/A   Clear
9:15 AM 37.4 °F - 28.4 °F 70% 30.31 in 10.0 mi Calm Calm - N/A   Clear
9:35 AM 42.8 °F - 30.2 °F 61% 30.30 in 10.0 mi Calm Calm - N/A   Clear
9:55 AM 46.4 °F - 30.2 °F 53% 30.29 in 10.0 mi Calm Calm - N/A   Clear
10:15 AM 46.4 °F - 30.2 °F 53% 30.29 in 10.0 mi Calm Calm - N/A   Clear
10:35 AM 50.0 °F - 30.2 °F 47% 30.29 in 10.0 mi Calm Calm - N/A   Clear
10:55 AM 51.8 °F - 28.4 °F 41% 30.28 in 10.0 mi SW 4.6 mph - N/A   Clear
11:15 AM 53.6 °F - 28.4 °F 38% 30.27 in 10.0 mi WSW 5.8 mph - N/A   Clear
11:35 AM 55.4 °F - 30.2 °F 38% 30.27 in 10.0 mi SSW 5.8 mph - N/A   Clear
11:55 AM 59.0 °F - 30.2 °F 34% 30.26 in 10.0 mi SSW 10.4 mph - N/A   Clear
12:15 PM 59.0 °F - 28.4 °F 31% 30.24 in 10.0 mi SW 11.5 mph - N/A   Clear
12:35 PM 60.8 °F - 28.4 °F 29% 30.23 in 10.0 mi SSW 11.5 mph - N/A   Clear
12:55 PM 62.6 °F - 26.6 °F 26% 30.21 in 10.0 mi SSW 15.0 mph 20.7 mph N/A   Clear
1:15 PM 62.6 °F - 26.6 °F 26% 30.18 in 10.0 mi SSW 13.8 mph - N/A   Clear
1:35 PM 62.6 °F - 26.6 °F 26% 30.16 in 10.0 mi South 12.7 mph 17.3 mph N/A   Clear
2:15 PM 64.4 °F - 21.2 °F 19% 30.12 in 10.0 mi South 21.9 mph 26.5 mph N/A   Clear
2:35 PM 66.2 °F - 21.2 °F 18% 30.10 in 10.0 mi South 19.6 mph 23.0 mph N/A   Clear
2:55 PM 66.2 °F - 23.0 °F 19% 30.09 in 10.0 mi South 19.6 mph - N/A   Clear
3:15 PM 68.0 °F - 19.4 °F 16% 30.08 in 10.0 mi South 18.4 mph 25.3 mph N/A   Clear
3:35 PM 68.0 °F - 19.4 °F 16% 30.06 in 10.0 mi SSW 20.7 mph - N/A   Clear
3:55 PM 68.0 °F - 17.6 °F 15% 30.05 in 10.0 mi South 19.6 mph - N/A   Clear
4:15 PM 68.0 °F - 19.4 °F 16% 30.04 in 10.0 mi South 20.7 mph 26.5 mph N/A   Clear
4:35 PM 66.2 °F - 17.6 °F 15% 30.03 in 10.0 mi South 18.4 mph 23.0 mph N/A   Clear
4:55 PM 66.2 °F - 15.8 °F 14% 30.02 in 10.0 mi South 13.8 mph - N/A   Clear
5:15 PM 64.4 °F - 17.6 °F 16% 30.01 in 10.0 mi South 12.7 mph - N/A   Clear
5:35 PM 64.4 °F - 23.0 °F 21% 30.00 in 10.0 mi SSW 16.1 mph - N/A   Clear
5:55 PM 62.6 °F - 23.0 °F 22% 30.00 in 10.0 mi SSW 11.5 mph - N/A   Clear
6:15 PM 60.8 °F - 24.8 °F 25% 30.00 in 10.0 mi South 10.4 mph - N/A   Clear
6:35 PM 59.0 °F - 23.0 °F 25% 29.99 in 10.0 mi South 10.4 mph - N/A   Clear
6:55 PM 60.8 °F - 24.8 °F 25% 29.99 in 10.0 mi South 10.4 mph - N/A   Clear
7:15 PM 60.8 °F - 23.0 °F 23% 29.99 in 10.0 mi South 12.7 mph - N/A   Clear
7:35 PM 60.8 °F - 23.0 °F 23% 29.98 in 10.0 mi SSE 12.7 mph - N/A   Clear
7:55 PM 59.0 °F - 23.0 °F 25% 29.97 in 10.0 mi SSE 10.4 mph - N/A   Clear
8:15 PM 57.2 °F - 23.0 °F 27% 29.97 in 10.0 mi SSE 10.4 mph - N/A   Clear
8:35 PM 55.4 °F - 23.0 °F 29% 29.96 in 10.0 mi SE 8.1 mph - N/A   Clear
8:55 PM 55.4 °F - 23.0 °F 29% 29.95 in 10.0 mi SSE 13.8 mph - N/A   Clear
9:15 PM 57.2 °F - 23.0 °F 27% 29.95 in 10.0 mi SSE 15.0 mph - N/A   Clear
9:35 PM 57.2 °F - 23.0 °F 27% 29.94 in 10.0 mi SSE 15.0 mph - N/A   Clear
9:55 PM 57.2 °F - 23.0 °F 27% 29.94 in 10.0 mi SSE 15.0 mph - N/A   Clear
10:15 PM 57.2 °F - 23.0 °F 27% 29.94 in 10.0 mi SSE 15.0 mph - N/A   Clear
10:35 PM 55.4 °F - 24.8 °F 31% 29.93 in 10.0 mi SSE 15.0 mph - N/A   Clear
10:55 PM 55.4 °F - 24.8 °F 31% 29.93 in 10.0 mi SSE 9.2 mph - N/A   Clear
11:15 PM 55.4 °F - 24.8 °F 31% 29.92 in 10.0 mi South 13.8 mph - N/A   Clear
11:35 PM 55.4 °F - 26.6 °F 33% 29.91 in 10.0 mi South 13.8 mph - N/A   Clear
11:55 PM 57.2 °F - 26.6 °F 31% 29.91 in 10.0 mi South 13.8 mph - N/A   Clear